OSCAR 31 (19420 NORAD) Tracking and Keplerian Element Data

This shows tracking and keplerian element data for the satellite.

Feedback or suggestion? Click here.




ElementValue
Catalog19420
NameOSCAR 31
Epoch Orbit78467
Epoch Day34.94090917
Epoch Year2025
RAAN19.564
Inclination90.0262
Eccentricity0.009599
Argument of Perigee50.8183
Mean Anonmoly10.3433
Mean Motion13.42521431
Decay Rate1.08E-06
L11 19420U 88074B 25034.94090917 .00000108 00000+0 16916-3 0 9990
L22 19420 90.0262 19.5640 0095990 50.8183 10.3433 13.42521431784671



Live tracking and technical data element details for OSCAR 31 (NORAD 19420). OSCAR 31 can be tracked NOW for your location showing map with azimuth and elevation plus other details from your city location.







IsCatalogInMostPopularTable: catalog: 19420, numindb: 313
Update: records affected: 1



GetName: 19420 OSCAR 31

Hit Count: updated at: Thu, 22 May 2025 04:14:07 GMT